SCP
1 1 1 1 1 1 1 1 1 1 1 1 1 1 0 0 0 0 0 0 0 0 0 0 0 0 0 0 0 0 0 0 0 0 0 0 0 0 0 0 0 0 0
1 1 1 1 1 1 1 1 1 1 1 1 1 1 1 0 0 0 0 0 0 0 0 0 0 0 0 0 0 0 0 0 0 0 0 0 0 0 0 0 0 0 0
1 1 1 1 1 1 1 1 1 1 1 1 1 1 1 1 1 1 0 0 0 0 0 0 0 0 0 0 0 0 0 0 0 0 0 0 0 0 0 0 0 0 0
1 1 1 1 1 1 1 1 2 1 1 1 1 1 1 1 1 1 1 0 0 0 0 0 0 0 0 0 0 0 0 0 0 0 0 0 0 0 0 0 0 0 0
1 1 1 1 2 2 2 2 2 2 1 1 1 1 1 1 1 0 0 1 1 1 0 0 0 0 0 0 0 0 0 0 0 0 0 0 0 0 0 0 0 0 0
2 2 2 2 2 2 2 2 2 2 2 1 1 1 1 1 0 0 0 0 0 0 0 0 0 0 0 0 0 0 0 0 0 0 0 0 0 0 0 0 0 0 0
2 2 2 2 2 2 2 2 2 2 2 2 1 1 1 0 0 0 0 0 0 0 0 0 0 0 0 0 0 0 0 0 0 0 0 0 0 0 0 0 0 0 0
3 3 3 3 3 3 3 3 2 2 2 2 1 1 1 1 0 0 0 0 0 0 0 0 0 0 0 0 0 0 0 0 0 0 0 0 0 0 0 0 0 0 0
3 3 3 3 3 3 3 3 3 2 2 2 2 1 1 1 0 0 0 0 0 0 0 0 0 0 0 0 0 0 0 0 0 0 0 0 0 0 0 0 0 0 0
3 4 4 4 3 3 3 3 2 2 2 2 1 1 1 1 0 0 0 0 1 1 1 0 0 0 0 0 0 0 0 0 0 0 0 0 0 0 0 0 0 0 0
4 4 4 4 4 3 3 2 2 2 2 1 1 1 1 1 0 0 0 0 1 1 1 0 0 0 0 0 0 0 0 0 0 0 0 0 0 0 0 0 0 0 0
4 4 4 4 4 3 2 2 2 2 1 1 1 1 1 1 0 0 0 0 0 0 1 0 0 0 0 0 0 0 0 0 0 0 0 0 0 0 0 0 0 0 0
4 4 4 4 3 3 2 2 2 1 1 1 1 1 1 1 0 0 0 0 0 0 0 0 0 0 0 0 0 0 0 0 0 0 0 0 0 0 0 0 0 0 0
3 3 3 3 3 2 2 2 1 1 1 1 1 1 1 1 1 0 0 0 0 0 0 0 0 0 0 0 0 0 0 0 0 0 0 0 0 0 0 0 0 0 0
2 3 3 2 2 1 1 1 1 1 1 1 1 1 1 1 0 0 0 0 0 0 0 0 0 0 0 0 0 0 0 0 0 0 0 0 0 0 0 0 0 0 0
2 2 2 2 2 1 1 1 1 1 0 1 1 1 1 0 0 0 0 0 0 0 0 0 0 0 0 0 0 0 0 0 0 0 0 0 0 0 0 0 0 0 0
2 2 2 2 1 1 1 1 1 0 0 0 0 0 0 0 0 0 0 0 0 0 0 0 0 0 0 0 0 0 0 0 0 0 0 0 0 0 0 0 0 0 0
1 1 1 1 1 1 1 1 1 0 0 0 0 0 0 0 0 0 0 0 0 0 0 0 0 0 0 0 0 0 0 0 0 0 0 0 0 0 0 0 0 0 0
1 1 1 1 1 1 1 1 1 0 0 0 0 0 0 0 0 0 0 0 0 0 0 0 0 0 0 0 0 0 0 0 0 0 0 0 0 0 0 0 0 0 0
1 1 1 1 1 1 1 1 1 1 0 0 0 0 0 0 0 0 0 0 0 0 0 0 0 0 0 0 0 0 0 0 0 0 0 0 0 0 0 0 0 0 0
1 1 1 1 1 1 1 1 1 1 0 0 0 0 0 0 0 0 0 0 0 0 0 0 0 0 0 0 0 0 0 0 0 0 0 0 0 0 0 0 0 0 0
1 1 1 1 1 1 1 1 1 1 0 0 0 0 0 0 0 0 0 0 0 0 0 0 0 0 0 0 0 0 0 0 0 0 0 0 0 0 0 0 0 0 0
1 1 1 1 0 0 0 1 0 0 0 0 0 0 0 0 0 0 0 0 0 0 0 0 0 0 0 0 0 0 0 0 0 0 0 0 0 0 0 0 0 0 0
1 0 0 0 0 0 0 0 0 0 0 0 0 0 0 0 0 0 0 0 0 0 0 0 0 0 0 0 0 0 0 0 0 0 0 0 0 0 0 0 0 0 0
0 0 0 0 0 0 0 0 0 0 0 0 0 0 0 0 0 0 0 0 0 0 0 0 0 0 0 0 0 0 0 0 0 0 0 0 0 0 0 0 0 0 0
0 0 0 0 0 0 0 0 0 0 0 0 0 0 0 0 0 0 0 0 0 0 0 0 0 0 0 0 0 0 0 0 0 0 0 0 0 0 0 0 0 0 0
Wind_Speed
9 9 8 8 8 8 7 7 7 6 6 6 5 5 4 4 4 3 3 3 3 2 3 3 3 4 3 3 3 4 4 4 5 5 3 3 3 5 3 4 3 3 2
9 9 9 8 8 8 8 8 7 7 7 6 6 5 5 4 4 4 3 3 3 3 3 3 3 3 3 3 3 4 4 4 5 6 4 3 3 3 3 4 3 2 2
9 9 9 9 9 9 8 7 7 7 7 6 6 6 5 4 4 4 3 3 3 3 3 3 3 3 3 3 4 4 4 4 4 5 4 3 2 2 3 3 2 2 2
8 9 9 9 8 8 7 7 7 7 7 7 6 6 5 5 4 4 4 4 3 2 2 2 2 3 3 3 3 4 4 5 4 4 4 3 2 2 3 3 2 2 2
8 8 8 8 7 7 7 7 7 7 7 6 6 5 5 4 4 4 4 4 3 2 2 2 1 2 3 4 4 4 4 4 4 3 3 3 2 2 3 3 3 2 1
8 8 7 7 7 7 6 6 6 6 6 6 6 5 5 3 3 2 3 3 3 3 2 2 1 2 1 0 2 4 5 5 5 3 3 3 3 3 3 3 3 2 1
8 7 7 8 7 7 6 6 6 6 6 6 5 5 5 3 4 4 3 3 3 2 2 2 2 0 1 1 2 3 2 1 3 5 4 4 4 3 4 3 2 3 3
7 7 7 7 7 6 6 6 6 6 6 6 6 6 5 4 5 4 4 4 3 2 2 2 2 1 1 2 3 2 1 0 1 2 3 3 4 4 4 4 3 2 1
7 7 7 6 6 6 6 6 6 6 6 6 6 6 6 5 5 5 5 4 3 3 2 1 1 1 3 4 3 2 2 1 1 0 2 3 3 3 4 3 2 2 1
7 6 6 6 7 7 7 6 5 5 6 6 5 5 5 5 5 5 5 4 4 3 3 3 3 1 1 3 3 3 3 2 1 1 2 2 3 1 2 3 3 3 2
5 5 6 6 6 7 6 5 5 5 5 5 5 4 4 4 6 6 4 3 3 3 3 3 3 3 1 2 4 2 2 4 3 2 2 1 1 1 1 1 2 3 3
5 5 5 5 5 5 6 6 5 5 5 6 5 5 4 4 4 5 5 3 2 2 2 1 3 4 3 2 1 1 2 5 3 1 1 1 1 1 1 1 2 2 2
4 5 5 5 4 4 6 5 5 5 5 5 5 5 4 4 5 5 7 6 3 2 1 3 3 4 4 3 2 2 3 3 1 1 1 1 1 2 1 1 1 1 2
5 5 5 4 4 3 3 4 4 4 4 5 5 5 5 5 4 5 5 5 5 4 3 5 6 4 3 1 3 3 2 1 2 1 1 1 1 1 1 2 2 1 1
4 5 5 4 4 4 3 2 3 3 3 4 4 4 4 5 5 4 4 4 4 4 4 4 3 3 3 2 2 2 1 1 1 1 1 1 1 1 1 1 2 2 2
4 4 4 4 4 4 4 3 4 3 4 4 2 1 2 2 5 6 5 4 4 4 5 4 3 3 3 3 2 2 1 1 1 1 1 1 1 1 1 2 2 2 3
4 4 3 3 4 5 5 4 4 3 3 4 3 3 3 5 6 6 6 6 5 6 5 4 3 3 3 3 2 2 2 1 1 1 1 1 1 1 1 2 2 3 3
5 4 4 3 4 4 4 4 4 5 5 4 4 5 6 6 7 7 7 6 5 5 4 4 4 3 3 3 2 2 2 2 2 2 1 1 1 2 2 2 2 3 4
4 3 3 3 3 3 4 4 4 5 4 4 5 6 7 7 7 7 7 5 4 4 4 3 3 3 3 3 2 2 1 1 1 2 1 2 2 2 2 3 3 2 4
3 3 3 3 3 4 4 5 5 5 5 5 4 4 6 6 5 5 5 4 3 3 3 3 3 2 2 2 2 2 2 2 2 2 2 2 2 3 3 4 3 3 4
2 3 5 4 3 3 4 4 4 5 5 4 4 4 5 5 5 5 4 3 3 2 2 2 2 2 2 1 1 2 2 1 1 2 2 2 3 3 4 4 4 4 4
2 3 3 2 2 2 2 3 3 3 4 4 4 5 6 4 3 3 3 3 2 2 1 1 2 2 1 1 1 1 1 1 1 2 2 2 3 3 3 3 4 4 4
3 3 3 2 2 3 3 3 3 3 3 4 4 4 5 4 3 3 3 2 1 1 1 1 2 1 1 1 0 0 1 1 1 2 3 3 3 3 3 3 4 4 4
3 3 3 3 2 3 3 3 3 3 3 3 3 4 4 4 3 3 3 2 2 2 1 1 1 2 2 1 0 1 2 2 3 2 3 4 4 3 4 3 4 5 5
2 3 3 3 3 3 3 3 3 4 3 3 3 3 4 3 3 3 3 3 3 3 2 2 2 2 2 2 2 3 4 3 3 4 3 3 3 3 4 4 4 4 5
2 2 2 2 2 3 3 3 3 3 3 3 3 3 3 3 3 3 3 3 3 3 2 2 2 3 3 3 4 5 3 2 2 4 5 3 2 2 3 4 4 5 4
Wind_Direction
190 192 199 201 203 205 210 211 209 211 204 206 209 210 210 213 211 211 235 230 242 254 265 267 274 288 286 282 278 277 276 275 275 286 291 292 284 280 284 282 269 254 203
189 190 195 198 201 203 206 208 204 202 204 202 203 204 207 208 210 217 231 237 246 254 264 272 279 278 276 288 290 288 288 284 277 283 286 280 277 277 285 283 282 266 257
189 193 195 198 200 205 207 204 200 198 198 196 197 201 203 203 206 217 227 234 243 251 259 267 279 288 286 290 288 290 287 281 281 278 283 296 285 291 287 273 272 278 267
190 194 197 201 202 204 205 205 202 199 196 196 195 195 196 200 204 212 216 222 230 235 250 260 272 285 288 287 278 283 290 289 283 278 284 287 292 300 287 289 278 258 266
194 199 200 200 198 201 203 205 204 201 199 193 193 193 196 199 206 207 211 208 208 220 233 253 286 17 6 330 318 313 302 291 289 290 295 299 312 318 307 293 290 278 245
198 202 197 193 192 194 200 203 200 196 194 190 190 185 189 195 125 143 233 204 202 214 224 241 214 182 153 234 337 336 333 309 307 301 295 300 307 307 310 295 299 295 287
197 196 191 189 188 187 187 186 189 183 180 183 184 186 185 165 145 165 215 219 210 219 222 242 262 106 234 244 203 212 227 307 314 306 307 310 312 318 310 304 308 307 316
193 191 189 189 189 180 177 182 187 185 180 184 185 187 183 167 155 168 193 204 202 199 212 237 262 275 356 318 274 251 251 277 302 282 308 314 328 326 304 282 277 267 255
195 193 189 185 182 181 184 184 185 185 187 187 187 188 186 164 155 168 194 192 190 193 194 178 247 203 42 331 277 265 262 242 154 20 343 327 328 322 311 291 282 266 275
201 194 185 181 182 185 188 187 186 187 188 184 181 182 182 167 155 168 205 208 194 190 176 158 99 48 52 315 270 265 264 274 283 220 218 227 238 214 246 285 298 291 301
205 198 189 182 183 183 179 179 181 185 183 180 172 172 171 166 159 170 203 229 209 201 195 186 136 131 166 270 276 278 303 290 256 254 244 234 228 248 260 288 307 301 305
197 194 193 185 181 176 173 176 178 179 179 178 174 171 165 166 169 174 185 227 285 210 205 184 121 138 171 216 266 355 293 274 257 255 268 285 306 323 343 328 318 311 312
197 190 183 175 171 175 175 176 177 180 188 187 184 182 174 173 164 167 178 184 209 213 147 96 122 159 180 175 166 233 246 250 263 268 289 310 329 339 307 258 228 238 237
198 191 177 173 172 171 177 181 178 173 189 192 190 188 181 178 179 176 182 176 177 184 169 144 158 175 204 143 163 193 226 301 302 293 299 299 296 280 296 316 305 286 265
199 188 181 176 173 175 180 176 182 164 182 198 199 199 197 194 183 177 186 182 192 187 181 176 179 173 184 184 182 179 190 191 249 292 300 304 300 313 328 324 309 292 282
219 204 193 184 180 186 172 142 77 112 120 124 120 209 177 153 144 157 165 158 163 177 191 183 185 191 197 197 196 183 183 210 257 266 275 292 303 309 312 311 306 307 306
219 212 204 189 189 194 186 176 165 131 107 106 123 131 144 143 146 160 168 168 171 183 197 190 189 191 196 198 199 199 195 184 240 256 266 274 286 299 317 321 318 314 308
210 201 205 200 198 195 192 189 187 186 178 165 149 150 152 152 154 162 164 164 166 190 201 194 190 191 192 198 206 207 202 184 203 230 246 276 285 290 302 303 306 325 313
216 206 201 204 200 192 188 190 191 193 190 172 158 155 161 161 163 172 179 191 179 184 197 205 200 194 193 197 203 206 205 213 231 246 244 277 284 280 290 299 300 306 289
214 193 202 212 204 191 190 194 190 188 184 179 177 167 160 169 170 169 189 199 194 192 201 202 200 202 199 200 201 213 220 219 222 245 259 273 285 289 287 285 293 299 296
210 182 188 210 205 191 187 194 196 195 188 180 177 156 171 186 179 179 184 189 196 199 208 205 192 190 189 193 200 224 240 247 253 270 278 277 279 283 286 290 294 297 302
215 202 196 193 181 173 175 188 198 193 183 181 168 152 170 199 184 177 180 185 186 184 189 202 196 183 179 191 199 222 248 271 283 285 283 283 284 287 291 297 304 306 304
205 195 186 179 172 154 175 181 184 189 185 180 169 161 171 183 176 172 172 171 168 158 165 181 180 154 125 124 146 181 293 330 328 319 297 289 291 290 291 297 295 297 301
197 193 183 175 184 180 175 176 174 176 177 178 176 171 170 175 175 165 158 146 152 155 155 153 137 118 112 96 92 84 58 17 327 303 294 291 292 294 292 292 290 296 297
184 178 173 166 173 176 167 168 169 166 168 171 171 168 162 160 153 148 148 149 151 141 135 134 131 128 122 105 77 66 58 35 359 327 282 277 281 285 290 289 293 295 296
144 148 150 154 161 163 161 166 167 161 162 158 154 151 148 146 141 145 150 147 142 138 134 123 116 118 124 114 93 80 77 52 12 329 298 279 284 295 301 294 302 299 300